Weather in Novitskoye

Russia / Primorsky Krai     43°03′16″N   133°10′24″E
temp.,
°C
wind,
m/s
gust,
m/s
humid.,
%
clouds,
%
prec.,
mm/h
press.,
hPa
HPBL,
m
19 april, mon
mon1901:00+6nw411630 0.0 1005433
04:00+4nw39700 0.0 1006248
07:00+3nw23770 0.0 100661
10:00+11nw38450 0.0 10051086
13:00+15w58280 0.0 10031825
16:00+15w69290 0.0 10031650
19:00+13sw36400 0.0 1004263
22:00+8wsw11480 0.0 100510
20 april, tue
tue2001:00+7nw21490 0.0 100613
04:00+6n716561 0.0 1009980
07:00+4nnw718410 0.0 10131324
10:00+7nw817240 0.0 10151633
13:00+11nw815170 0.0 10162058
16:00+13nw817170 0.0 10142292
19:00+11nw716220 0.0 10161948
22:00+8wnw413290 0.0 1019506
21 april, wed
wed2101:00+4wnw23520 0.0 102083
04:00+4nnw22450 0.0 102127
07:00+4n22430 0.0 102230
10:00+13nw23260 0.0 1021397
13:00+19wnw37170 0.0 10191754
16:00+20w46180 0.0 10181526
19:00+15sw23340 0.0 1019104
22:00+10n11410 0.0 102111
22 april, thu
thu2201:00+9n22425 0.0 102212
04:00+9nne2244100 0.0 102222
07:00+10ese2141100 0.0 102319
10:00+15sse2533100 0.0 1024428
13:00+16sse4627100 0.0 1024701
16:00+13sse3534100 0.0 1024556
19:00+9sse2448100 0.0 1025287
22:00+6se2259100 0.0 1027106
23 april, fri
fri2301:00+6ese1155100 0.0 102729
04:00+6ese0053100 0.0 102610
07:00+6n1151100 0.0 102617
10:00+10nw1140100 0.0 1026256
13:00+15wnw2335100 0.0 1024619
16:00+18wnw3334100 0.0 1022933
19:00+13w2254100 0.0 102267
22:00+11n2359100 0.0 102251